Regional Weather Roundup
Issued by NWS

Home | Current Version | Previous Version | Graphics & Text | Print | Product List | Glossary On
Versions: 1 2 3 4 5 6 7 8 9 10 11 12 13 14 15 16 17 18 19 20 21 22 23 24 25 26 27 28 29 30 31 32 33 34 35 36 37 38 39 40 41 42 43 44 45 46 47 48 49 50
545
ASUS43 KLMK 232302
RWRKY
KENTUCKY REGIONAL WEATHER ROUNDUP
NATIONAL WEATHER SERVICE LOUISVILLE KY
700 PM EDT SAT JUL 23 2016

NOTE "FAIR" INDICATES FEW OR NO CLOUDS BELOW 12,000 FEET
WITH NO SIGNIFICANT WEATHER AND/OR OBSTRUCTIONS TO VISIBILITY.

KYZ001>023-026-027-061>063-070>075-240000-
WESTERN AND SOUTH CENTRAL KENTUCKY

CITY           SKY/WX    TMP DP  RH WIND       PRES   REMARKS
PADUCAH        PTSUNNY   93  75  55 VRB3      29.89F HX 104
HENDERSON      MOSUNNY   90  75  62 N3        29.90F HX 100
OWENSBORO      MOSUNNY   92  77  61 NW5       29.92F HX 105
HOPKINSVILLE   SUNNY     90  76  64 CALM      29.92F HX 101
BOWLING GREEN  PTSUNNY   91  75  59 E3        29.93F HX 101
GLASGOW        NOT AVBL
$$

KYZ024-025-028>034-038-045-046-053-240000-
NORTH CENTRAL KENTUCKY

CITY           SKY/WX    TMP DP  RH WIND       PRES   REMARKS
LOUISVILLE/SDF MOSUNNY   93  69  45 E5        29.92F HX  98
LOUISVILLE/LOU MOSUNNY   94  71  47 N5        29.93F HX 101
FORT KNOX      SUNNY     89  73  58 CALM      29.93F HX  97
$$

KYZ035>037-039>044-047>052-055>060-089>105-240000-
NORTHEAST KENTUCKY

CITY           SKY/WX    TMP DP  RH WIND       PRES   REMARKS
LEXINGTON      SUNNY     92  69  47 W3        29.97F HX  97
COVINGTON      MOSUNNY   91  72  53 W7        29.96F HX  98
FRANKFORT      SUNNY     91  70  49 NW3       29.95F HX  96
$$

KYZ054-064>069-076>088-106>120-240000-
SOUTHEAST KENTUCKY

CITY           SKY/WX    TMP DP  RH WIND       PRES   REMARKS
JACKSON        SUNNY     88  72  58 CALM      30.01S HX  94
LONDON         SUNNY     90  68  48 NE6       29.99F HX  94
SOMERSET       PTSUNNY   88  70  55 S3        29.98F HX  92
MIDDLESBORO    MOSUNNY   90  73  56 CALM      30.00S HX  97
MONTICELLO     CLEAR    N/A N/A N/A W10       29.99F
$$





USA.gov is the U.S. government's official web portal to all federal, state and local government web resources and services.